When you browse on this site, cookies collect data to enhance your experience and personalize the content and advertising you see.
Visit our Privacy Policy to learn more. By continuing to use the site, you agree to this use of cookies and data.
  • în România
  • Lista ţărilor
  • Pe 7 zile
  • Temperatura apei
  • Hartă satelitară
  • Meteo pe hartă
  • Widget-uri
  • user-avatar
    Intrare

    Meteo pe oră la Sidorovskoe

    Astăzi, 17 Iulie, Miercuri

    Timp Temperatura Precipitaţii Vânt Presiune Umiditate
    00:00 +11°C° 0 mm 1 m/s 747 mmHg 94%
    01:00 +11°C° 0 mm 1 m/s 747 mmHg 94%
    02:00 +11°C° 0 mm 1 m/s 747 mmHg 95%
    03:00 +11°C° 0 mm 1 m/s 747 mmHg 94%
    04:00 +11°C° 0 mm 1 m/s 747 mmHg 93%
    05:00 +12°C° 0 mm 1 m/s 747 mmHg 92%
    06:00 +13°C° 0 mm 0 m/s 747 mmHg 85%
    07:00 +15°C° 0 mm 0 m/s 747 mmHg 78%
    08:00 +17°C° 0 mm 0 m/s 746 mmHg 71%
    09:00 +18°C° 0 mm 0 m/s 747 mmHg 65%
    10:00 +20°C° 0 mm 0 m/s 747 mmHg 59%
    11:00 +22°C° 0 mm 0 m/s 747 mmHg 53%
    12:00 +22°C° 0 mm 0 m/s 746 mmHg 52%
    13:00 +22°C° 0 mm 0 m/s 746 mmHg 51%
    14:00 +22°C° 0 mm 0 m/s 746 mmHg 50%
    15:00 +24°C° 0.3 mm 1 m/s 746 mmHg 57%
    16:00 +23°C° 0.3 mm 1 m/s 746 mmHg 64%
    17:00 +22°C° 0.3 mm 1 m/s 746 mmHg 72%
    18:00 +20°C° 0.4 mm 1 m/s 746 mmHg 78%
    19:00 +19°C° 0.4 mm 1 m/s 746 mmHg 84%
    20:00 +16°C° 0.4 mm 1 m/s 745 mmHg 90%
    21:00 +16°C° 0.2 mm 1 m/s 745 mmHg 92%
    22:00 +15°C° 0.2 mm 1 m/s 745 mmHg 94%
    23:00 +15°C° 0.2 mm 1 m/s 745 mmHg 96%

    Mâine, 18 Iulie, Joi

    Timp Temperatura Precipitaţii Vânt Presiune Umiditate
    00:00 +14°C° 0 mm 1 m/s 745 mmHg 96%
    01:00 +14°C° 0 mm 1 m/s 745 mmHg 97%
    02:00 +14°C° 0 mm 1 m/s 745 mmHg 97%
    03:00 +14°C° 0.1 mm 1 m/s 745 mmHg 98%
    04:00 +14°C° 0.1 mm 1 m/s 745 mmHg 98%
    05:00 +14°C° 0.1 mm 1 m/s 745 mmHg 98%
    06:00 +15°C° 0.1 mm 1 m/s 745 mmHg 97%
    07:00 +15°C° 0.1 mm 2 m/s 744 mmHg 95%
    08:00 +16°C° 0.1 mm 2 m/s 744 mmHg 94%
    09:00 +16°C° 1.8 mm 2 m/s 744 mmHg 95%
    10:00 +16°C° 1.8 mm 1 m/s 744 mmHg 96%
    11:00 +16°C° 1.8 mm 1 m/s 744 mmHg 98%
    12:00 +16°C° 1.9 mm 2 m/s 744 mmHg 97%
    13:00 +16°C° 1.9 mm 2 m/s 744 mmHg 97%
    14:00 +16°C° 1.9 mm 3 m/s 744 mmHg 97%
    15:00 +16°C° 0.5 mm 3 m/s 744 mmHg 96%
    16:00 +16°C° 0.5 mm 3 m/s 744 mmHg 96%
    17:00 +17°C° 0.5 mm 3 m/s 744 mmHg 96%
    18:00 +16°C° 0.3 mm 3 m/s 744 mmHg 96%
    19:00 +16°C° 0.3 mm 3 m/s 744 mmHg 97%
    20:00 +15°C° 0.3 mm 2 m/s 744 mmHg 98%
    21:00 +15°C° 0.2 mm 2 m/s 744 mmHg 98%
    22:00 +15°C° 0.2 mm 2 m/s 744 mmHg 98%
    23:00 +15°C° 0.2 mm 2 m/s 744 mmHg 98%

    Poimâine, 19 Iulie, Vineri

    Timp Temperatura Precipitaţii Vânt Presiune Umiditate
    00:00 +15°C° 0.1 mm 2 m/s 744 mmHg 99%
    01:00 +15°C° 0.1 mm 2 m/s 744 mmHg 99%
    02:00 +15°C° 0.1 mm 2 m/s 744 mmHg 99%
    03:00 +15°C° 0.5 mm 2 m/s 744 mmHg 99%
    04:00 +15°C° 0.5 mm 2 m/s 744 mmHg 99%
    05:00 +15°C° 0.5 mm 2 m/s 744 mmHg 99%
    06:00 +15°C° 0.5 mm 2 m/s 744 mmHg 98%
    07:00 +16°C° 0.5 mm 2 m/s 745 mmHg 98%
    08:00 +16°C° 0.5 mm 2 m/s 745 mmHg 98%
    09:00 +16°C° 1 mm 2 m/s 745 mmHg 96%
    10:00 +17°C° 1 mm 3 m/s 745 mmHg 95%
    11:00 +18°C° 1 mm 3 m/s 745 mmHg 94%
    12:00 +18°C° 1.1 mm 3 m/s 746 mmHg 93%
    13:00 +18°C° 1.1 mm 4 m/s 746 mmHg 92%
    14:00 +18°C° 1.1 mm 4 m/s 746 mmHg 91%
    15:00 +18°C° 0.6 mm 4 m/s 746 mmHg 91%
    16:00 +17°C° 0.6 mm 4 m/s 746 mmHg 91%
    17:00 +17°C° 0.6 mm 4 m/s 747 mmHg 91%
    18:00 +17°C° 0.3 mm 4 m/s 747 mmHg 92%
    19:00 +17°C° 0.3 mm 3 m/s 747 mmHg 93%
    20:00 +16°C° 0.3 mm 3 m/s 747 mmHg 94%
    21:00 +16°C° 0.4 mm 3 m/s 748 mmHg 95%
    22:00 +14°C° 0.4 mm 3 m/s 748 mmHg 96%
    23:00 +14°C° 0.4 mm 2 m/s 748 mmHg 97%

    20 Iulie, Sâmbătă

    Timp Temperatura Precipitaţii Vânt Presiune Umiditate
    00:00 +14°C° 0 mm 2 m/s 748 mmHg 97%
    01:00 +14°C° 0 mm 2 m/s 749 mmHg 98%
    02:00 +14°C° 0 mm 2 m/s 749 mmHg 98%
    03:00 +14°C° 0 mm 2 m/s 749 mmHg 98%
    04:00 +15°C° 0 mm 2 m/s 749 mmHg 97%
    05:00 +14°C° 0 mm 3 m/s 750 mmHg 97%
    06:00 +14°C° 0.1 mm 3 m/s 750 mmHg 97%
    07:00 +14°C° 0.1 mm 3 m/s 750 mmHg 97%
    08:00 +14°C° 0.1 mm 3 m/s 750 mmHg 97%
    09:00 +16°C° 0.3 mm 3 m/s 751 mmHg 97%
    10:00 +16°C° 0.3 mm 3 m/s 751 mmHg 96%
    11:00 +16°C° 0.3 mm 3 m/s 751 mmHg 96%
    12:00 +17°C° 0.3 mm 3 m/s 752 mmHg 91%
    13:00 +18°C° 0.3 mm 3 m/s 752 mmHg 87%
    14:00 +19°C° 0.3 mm 3 m/s 752 mmHg 82%
    15:00 +19°C° 0.6 mm 3 m/s 752 mmHg 84%
    16:00 +19°C° 0.6 mm 2 m/s 752 mmHg 87%
    17:00 +20°C° 0.6 mm 2 m/s 752 mmHg 90%
    18:00 +19°C° 0.5 mm 2 m/s 752 mmHg 92%
    19:00 +18°C° 0.5 mm 2 m/s 753 mmHg 94%
    20:00 +18°C° 0.5 mm 1 m/s 753 mmHg 96%
    21:00 +16°C° 0 mm 1 m/s 753 mmHg 97%
    22:00 +16°C° 0 mm 1 m/s 753 mmHg 97%
    23:00 +15°C° 0 mm 1 m/s 754 mmHg 98%

    21 Iulie, Duminică

    Timp Temperatura Precipitaţii Vânt Presiune Umiditate
    00:00 +15°C° 0 mm 1 m/s 754 mmHg 98%
    01:00 +14°C° 0 mm 1 m/s 754 mmHg 99%
    02:00 +14°C° 0 mm 1 m/s 754 mmHg 99%
    03:00 +14°C° 0 mm 1 m/s 754 mmHg 99%
    04:00 +14°C° 0 mm 1 m/s 754 mmHg 99%
    05:00 +14°C° 0 mm 1 m/s 755 mmHg 99%
    06:00 +15°C° 0 mm 1 m/s 755 mmHg 97%
    07:00 +16°C° 0 mm 1 m/s 755 mmHg 94%
    08:00 +18°C° 0 mm 1 m/s 755 mmHg 92%
    09:00 +20°C° 0 mm 1 m/s 755 mmHg 84%
    10:00 +22°C° 0 mm 1 m/s 755 mmHg 75%
    11:00 +23°C° 0 mm 1 m/s 755 mmHg 67%
    12:00 +23°C° 0.3 mm 2 m/s 755 mmHg 68%
    13:00 +24°C° 0.3 mm 2 m/s 755 mmHg 69%
    14:00 +24°C° 0.3 mm 2 m/s 755 mmHg 70%
    15:00 +24°C° 0.4 mm 2 m/s 755 mmHg 72%
    16:00 +23°C° 0.4 mm 2 m/s 755 mmHg 74%
    17:00 +23°C° 0.4 mm 2 m/s 755 mmHg 76%
    18:00 +21°C° 0.2 mm 2 m/s 755 mmHg 82%
    19:00 +20°C° 0.2 mm 1 m/s 755 mmHg 88%
    20:00 +19°C° 0.2 mm 1 m/s 755 mmHg 94%
    21:00 +18°C° 0 mm 1 m/s 755 mmHg 94%
    22:00 +16°C° 0 mm 1 m/s 755 mmHg 95%
    23:00 +15°C° 0 mm 1 m/s 755 mmHg 95%

    22 Iulie, Luni

    Timp Temperatura Precipitaţii Vânt Presiune Umiditate
    00:00 +15°C° 0 mm 1 m/s 756 mmHg 96%
    01:00 +14°C° 0 mm 1 m/s 756 mmHg 96%
    02:00 +14°C° 0 mm 1 m/s 756 mmHg 97%
    03:00 +14°C° 0 mm 1 m/s 756 mmHg 97%
    04:00 +14°C° 0 mm 1 m/s 756 mmHg 97%
    05:00 +14°C° 0 mm 1 m/s 756 mmHg 97%
    06:00 +15°C° 0 mm 1 m/s 756 mmHg 92%
    07:00 +18°C° 0 mm 1 m/s 756 mmHg 87%
    08:00 +18°C° 0 mm 2 m/s 756 mmHg 82%
    09:00 +20°C° 0 mm 2 m/s 756 mmHg 74%
    10:00 +23°C° 0 mm 2 m/s 756 mmHg 66%
    11:00 +24°C° 0 mm 2 m/s 756 mmHg 57%
    12:00 +25°C° 0 mm 2 m/s 756 mmHg 56%
    13:00 +25°C° 0 mm 3 m/s 756 mmHg 54%
    14:00 +26°C° 0 mm 3 m/s 756 mmHg 52%
    15:00 +25°C° 0 mm 3 m/s 756 mmHg 54%
    16:00 +25°C° 0 mm 3 m/s 756 mmHg 55%
    17:00 +25°C° 0 mm 3 m/s 756 mmHg 57%
    18:00 +22°C° 0 mm 3 m/s 756 mmHg 64%
    19:00 +20°C° 0 mm 2 m/s 756 mmHg 71%
    20:00 +18°C° 0 mm 2 m/s 756 mmHg 78%
    21:00 +17°C° 0 mm 2 m/s 756 mmHg 80%
    22:00 +16°C° 0 mm 2 m/s 757 mmHg 83%
    23:00 +14°C° 0 mm 2 m/s 757 mmHg 86%
    Arată mai mult